McAllen, TX

12:41 AM CDT on July 28, 2017 (GMT -0500)
McAllen Miller International

Weather History for KMFE - March, 2012

Change the Weather History Date:

Wednesday, March 28, 2012

  Actual Average Record
Temperature  
Mean Temperature 81 °F 73 °F  
Max Temperature 89 °F 85 °F 100 °F (1972)
Min Temperature 72 °F 62 °F 43 °F (1955)
Degree Days  
Heating Degree Days 0 1  
Month to date heating degree days 24 39  
Since 1 July heating degree days 403 572  
Cooling Degree Days 16 9  
Month to date cooling degree days 277 190  
Year to date cooling degree days 527 349  
Growing Degree Days 30 (Base 50)    
Moisture  
Dew Point 68 °F    
Average Humidity 70    
Maximum Humidity 93    
Minimum Humidity 46    
Precipitation  
Precipitation T in 0.03 in 0.44 in (1999)
Month to date precipitation 0.11 0.94  
Year to date precipitation 3.59 3.10  
Sea Level Pressure  
Sea Level Pressure 29.94 in    
Wind  
Wind Speed 13 mph (SE)    
Max Wind Speed 23 mph    
Max Gust Speed 29 mph    
Visibility 10 miles    
Events      
T = Trace of Precipitation, MM = Missing Value Source: NWS Daily Summary

Daily Weather History Graph

Daily Weather History Graph

Search for Another Location

Airport or City:

Trip Planner

Search our weather history database for the weather conditions in past years. The results will help you decide how hot, cold, wet, or windy it might be!

Date:

Astronomy

Mar. 28, 2012 Rise Set
Actual Time 7:27 AM CDT 7:48 PM CDT
Civil Twilight 7:04 AM CDT 8:11 PM CDT
Nautical Twilight 6:37 AM CDT 8:38 PM CDT
Astronomical Twilight 6:10 AM CDT 9:05 PM CDT
Moon 11:15 AM CDT 12:23 AM CDT
Length of Visible Light 13h 06m
Length of Day
12h 20m
Waxing Crescent, 30% of the Moon is Illuminated
Mar 28
Waxing Crescent
Mar 30
First Quarter
Apr 6
Full
Apr 13
Last Quarter
Apr 21
New

Hourly Weather History & Observations

Time (CDT) Temp. Heat Index Dew Point Humidity Pressure Visibility Wind Dir Wind Speed Gust Speed Precip Events Conditions
12:53 AM 73.9 °F - 68.0 °F 82% 29.95 in 10.0 mi ESE 13.8 mph - N/A   Mostly Cloudy
1:03 AM 73.4 °F - 68.0 °F 83% 29.95 in 10.0 mi ESE 13.8 mph - N/A   Scattered Clouds
1:50 AM 73.4 °F - 69.8 °F 88% 29.94 in 10.0 mi SE 18.4 mph 25.3 mph N/A   Mostly Cloudy
1:53 AM 73.9 °F - 69.1 °F 85% 29.94 in 10.0 mi SE 18.4 mph 25.3 mph N/A   Mostly Cloudy
2:30 AM 73.4 °F - 69.8 °F 88% 29.91 in 10.0 mi ESE 17.3 mph - N/A   Mostly Cloudy
2:53 AM 73.9 °F - 69.1 °F 85% 29.93 in 10.0 mi SE 10.4 mph - N/A   Overcast
3:53 AM 73.9 °F - 69.1 °F 85% 29.95 in 10.0 mi ESE 8.1 mph - N/A   Overcast
4:45 AM 73.4 °F - 69.8 °F 88% 29.97 in 10.0 mi East 4.6 mph - N/A   Overcast
4:53 AM 73.9 °F - 69.1 °F 85% 29.96 in 10.0 mi East 4.6 mph - N/A   Overcast
5:53 AM 73.9 °F - 69.1 °F 85% 29.97 in 10.0 mi ENE 6.9 mph - 0.00 in   Overcast
6:53 AM 73.0 °F - 69.1 °F 87% 29.97 in 10.0 mi East 5.8 mph - 0.00 in   Overcast
7:53 AM 72.0 °F - 69.1 °F 91% 29.97 in 10.0 mi ESE 8.1 mph - N/A   Scattered Clouds
8:53 AM 73.9 °F - 69.1 °F 85% 29.98 in 10.0 mi SE 11.5 mph - N/A   Mostly Cloudy
9:53 AM 78.1 °F - 69.1 °F 74% 29.99 in 10.0 mi SE 11.5 mph - N/A   Scattered Clouds
10:13 AM 78.8 °F - 68.0 °F 69% 30.00 in 10.0 mi SSE 12.7 mph - N/A   Mostly Cloudy
10:45 AM 80.6 °F 83.2 °F 68.0 °F 65% 30.00 in 10.0 mi SSE 12.7 mph - N/A   Mostly Cloudy
10:53 AM 82.0 °F 84.5 °F 66.9 °F 60% 29.99 in 10.0 mi SE 16.1 mph 20.7 mph N/A   Mostly Cloudy
11:53 AM 82.9 °F 85.0 °F 66.0 °F 56% 29.97 in 10.0 mi South 12.7 mph 21.9 mph N/A   Mostly Cloudy
12:53 PM 86.0 °F 87.6 °F 64.9 °F 49% 29.95 in 10.0 mi SSE 13.8 mph 20.7 mph N/A   Mostly Cloudy
1:53 PM 88.0 °F 89.6 °F 64.9 °F 46% 29.92 in 10.0 mi SE 17.3 mph 25.3 mph N/A   Mostly Cloudy
2:53 PM 88.0 °F 89.3 °F 64.0 °F 45% 29.90 in 10.0 mi SE 19.6 mph - N/A   Scattered Clouds
3:53 PM 86.0 °F 87.3 °F 64.0 °F 48% 29.88 in 10.0 mi SE 17.3 mph - N/A   Mostly Cloudy
4:53 PM 84.9 °F 86.1 °F 64.0 °F 49% 29.86 in 10.0 mi SSE 16.1 mph 26.5 mph N/A   Mostly Cloudy
5:53 PM 86.0 °F 87.6 °F 64.9 °F 49% 29.86 in 10.0 mi SE 19.6 mph 26.5 mph N/A   Clear
6:53 PM 82.0 °F 83.4 °F 64.0 °F 54% 29.85 in 10.0 mi SE 20.7 mph - N/A   Clear
7:53 PM 80.1 °F 81.7 °F 64.0 °F 58% 29.87 in 10.0 mi SE 12.7 mph 23.0 mph N/A   Clear
8:53 PM 78.1 °F - 66.0 °F 66% 29.89 in 10.0 mi SE 16.1 mph 20.7 mph N/A   Clear
9:53 PM 75.9 °F - 68.0 °F 76% 29.92 in 10.0 mi SSE 16.1 mph 23.0 mph N/A   Scattered Clouds
10:03 PM 77.0 °F - 68.0 °F 74% 29.94 in 10.0 mi SSE 16.1 mph 23.0 mph N/A   Mostly Cloudy
10:53 PM 75.9 °F - 69.1 °F 79% 29.93 in 10.0 mi SE 13.8 mph - N/A   Scattered Clouds
11:30 PM 75.2 °F - 69.8 °F 83% 29.92 in 10.0 mi ESE 13.8 mph - N/A   Mostly Cloudy
11:53 PM 75.0 °F - 69.1 °F 82% 29.92 in 10.0 mi SE 15.0 mph - N/A   Overcast